Scottsbluff, NE

1:42 PM MDT on October 18, 2019 (GMT -0600)
Heilig

Weather History for KBFF - August, 2019

Change the Weather History Date:

Monday, August 12, 2019

  Actual Average Record
Temperature  
Mean Temperature 74 °F -  
Max Temperature 89 °F 85 °F 100 °F (1938)
Min Temperature 60 °F 57 °F 42 °F (2004)
Cooling Degree Days 10    
Growing Degree Days 24 (Base 50)    
Moisture  
Dew Point 60 °F    
Average Humidity 76    
Maximum Humidity 100    
Minimum Humidity 26    
Precipitation  
Precipitation 0.00 in - - ()
Sea Level Pressure  
Sea Level Pressure 29.94 in    
Wind  
Wind Speed 9 mph (NNW)    
Max Wind Speed 17 mph    
Max Gust Speed 25 mph    
Visibility 8 miles    
Events Fog    
Averages and records for this station are not official NWS values.
T = Trace of Precipitation, MM = Missing Value Source: NWS Daily Summary

Daily Weather History Graph

Daily Weather History Graph

Search for Another Location

Airport or City:

Astronomy

Aug. 12, 2019 Rise Set
Actual Time 5:59 AM MDT 7:58 PM MDT
Civil Twilight 5:28 AM MDT 8:29 PM MDT
Nautical Twilight 4:51 AM MDT 9:06 PM MDT
Astronomical Twilight 4:11 AM MDT 9:46 PM MDT
Moon 6:32 PM MDT (8/12) 3:08 AM MDT (8/12)
Length of Visible Light 15h 00m
Length of Day
13h 59m
Waxing Gibbous, 93% of the Moon is Illuminated
Aug 12
Waxing Gibbous
Aug 15
Full
Aug 23
Last Quarter
Aug 30
New
Sep 5
First Quarter

Hourly Weather History & Observations

Time (MDT) Temp. Heat Index Dew Point Humidity Pressure Visibility Wind Dir Wind Speed Gust Speed Precip Events Conditions
12:53 AM 64.0 °F - 63.0 °F 96% 29.84 in 10.0 mi East 8.1 mph - N/A   Clear
1:53 AM 63.0 °F - 63.0 °F 100% 29.81 in 9.0 mi ESE 6.9 mph - N/A   Partly Cloudy
2:07 AM 63.0 °F - 63.0 °F 100% 29.95 in 7.0 mi SE 9.2 mph - N/A   Mostly Cloudy
2:15 AM 63.0 °F - 63.0 °F 100% 29.95 in 1.8 mi SE 8.1 mph - N/A   Overcast
2:22 AM 63.0 °F - 63.0 °F 100% 29.94 in 0.2 mi SSE 9.2 mph - N/A Fog Fog
2:29 AM 63.0 °F - 63.0 °F 100% 29.94 in 0.2 mi SSE 8.1 mph - N/A Fog Fog
2:53 AM 63.0 °F - 63.0 °F 100% 29.79 in 0.2 mi SE 5.8 mph - N/A Fog Fog
3:53 AM 62.1 °F - 62.1 °F 100% 29.81 in 0.2 mi ESE 3.5 mph - N/A Fog Fog
4:53 AM 60.1 °F - 60.1 °F 100% 29.84 in 0.2 mi WNW 6.9 mph - N/A Fog Fog
5:00 AM 60.1 °F - 60.1 °F 100% 29.96 in 1.0 mi WNW 10.4 mph - N/A   Mist
5:04 AM 60.1 °F - 60.1 °F 100% 29.96 in 4.0 mi WNW 11.5 mph - N/A   Mostly Cloudy
5:15 AM 60.1 °F - 60.1 °F 100% 29.98 in 10.0 mi WNW 13.8 mph - N/A   Scattered Clouds
5:53 AM 60.1 °F - 59.0 °F 96% 29.91 in 10.0 mi WNW 17.3 mph 25.3 mph N/A   Clear
6:38 AM 61.0 °F - 60.1 °F 97% 30.03 in 10.0 mi WNW 16.1 mph - N/A   Mostly Cloudy
6:53 AM 61.0 °F - 60.1 °F 97% 29.93 in 10.0 mi WNW 15.0 mph - N/A   Overcast
7:53 AM 64.9 °F - 61.0 °F 87% 29.96 in 10.0 mi WNW 10.4 mph 24.2 mph N/A   Scattered Clouds
8:11 AM 64.9 °F - 61.0 °F 87% 30.07 in 10.0 mi WNW 12.7 mph - N/A   Mostly Cloudy
8:20 AM 66.0 °F - 61.0 °F 84% 30.07 in 10.0 mi WNW 10.4 mph - N/A   Scattered Clouds
8:27 AM 66.0 °F - 61.0 °F 84% 30.08 in 10.0 mi WNW 9.2 mph - N/A   Mostly Cloudy
8:53 AM 68.0 °F - 62.1 °F 81% 29.97 in 10.0 mi WNW 10.4 mph - N/A   Overcast
9:53 AM 73.0 °F - 62.1 °F 68% 29.96 in 10.0 mi West 11.5 mph - N/A   Scattered Clouds
10:53 AM 77.0 °F - 61.0 °F 58% 29.95 in 10.0 mi West 11.5 mph - N/A   Clear
11:53 AM 79.0 °F - 61.0 °F 54% 29.95 in 10.0 mi West 11.5 mph 17.3 mph N/A   Clear
12:53 PM 82.0 °F 82.1 °F 59.0 °F 45% 29.94 in 10.0 mi WNW 13.8 mph 19.6 mph N/A   Clear
1:53 PM 84.0 °F 83.3 °F 57.0 °F 40% 29.92 in 10.0 mi WNW 9.2 mph - N/A   Clear
2:53 PM 84.9 °F 83.2 °F 53.1 °F 33% 29.91 in 10.0 mi NNW 6.9 mph - N/A   Clear
3:53 PM 87.1 °F 85.3 °F 55.0 °F 33% 29.88 in 10.0 mi NE 5.8 mph - N/A   Clear
4:53 PM 88.0 °F - 50.0 °F 27% 29.87 in 10.0 mi North 10.4 mph - N/A   Clear
5:53 PM 84.9 °F 83.6 °F 55.0 °F 36% 29.88 in 10.0 mi East 11.5 mph - N/A   Clear
6:53 PM 80.1 °F 80.7 °F 59.0 °F 48% 29.90 in 10.0 mi ESE 9.2 mph - N/A   Clear
7:53 PM 72.0 °F - 61.0 °F 68% 29.93 in 10.0 mi ENE 5.8 mph - N/A   Clear
8:53 PM 68.0 °F - 57.0 °F 68% 29.95 in 10.0 mi ENE 8.1 mph - N/A   Clear
9:53 PM 66.0 °F - 57.9 °F 75% 29.96 in 10.0 mi NE 6.9 mph - N/A   Clear
10:53 PM 64.0 °F - 55.9 °F 75% 29.98 in 10.0 mi East 4.6 mph - N/A   Clear
11:53 PM 64.0 °F - 57.9 °F 80% 29.98 in 10.0 mi ENE 9.2 mph - N/A   Clear